SCP
0 0 -0 -0 -0 0 0 0 -0 -0 0 0 -0 0 0 0 0 -0 -0 -0 0 -0 0 -0 -0 -0 -0 -0 -0 -0 -0 -0 0 0 0 0 0 0 0 0 0 0 0 0
0 -0 -0 -0 -0 -0 0 0 0 0 -0 0 0 0 0 0 0 -0 -0 -0 0 0 -0 0 -0 -0 -0 -0 -0 -0 -0 0 0 0 0 0 0 0 0 1 1 1 1 1
0 0 0 0 0 0 0 0 0 0 0 0 0 0 0 0 0 -0 -1 -0 0 0 -0 -0 -0 -0 -0 -0 -0 -0 0 -0 0 0 0 0 0 0 1 1 1 1 1 1
0 0 0 -0 0 0 0 -0 0 0 0 0 0 0 0 0 -0 -0 -0 -0 0 0 0 0 -0 -0 -0 -0 -0 -0 -0 -0 -0 -0 0 0 0 0 1 1 1 1 0 0
0 0 0 -0 0 0 0 0 0 0 0 0 0 0 0 0 -0 -0 -0 -0 0 0 0 -0 -1 -1 -0 -0 -0 -0 -0 -0 -0 -0 -0 0 0 0 0 0 0 0 0 0
0 0 0 -0 0 0 0 0 0 0 0 0 0 0 0 -0 -0 -0 -0 -0 0 0 -0 -1 -1 -0 -0 -0 -0 -0 -0 -0 0 0 0 0 0 0 0 0 0 0 0 0
0 0 0 0 0 0 0 0 0 0 0 0 1 1 1 0 0 -0 -0 -0 -0 -0 -0 -0 -0 -0 -0 -0 -0 -0 -0 0 0 0 0 0 0 0 0 0 0 0 0 0
0 0 0 0 0 1 1 1 1 0 0 1 1 1 1 0 0 -0 -0 -0 -0 -0 -0 -0 -0 -0 -1 -0 -0 0 0 0 0 0 0 0 0 0 0 0 0 0 0 0
0 1 0 0 0 0 1 1 0 0 0 1 1 1 1 0 0 0 -0 -1 -0 -0 -1 -0 -0 -0 -0 -0 -0 -0 -0 -0 -0 0 0 0 0 0 0 0 0 0 0 0
0 0 0 0 0 0 0 0 0 0 0 0 1 1 2 1 0 0 0 -0 -0 -0 -1 -1 -1 -0 -0 -0 -0 -0 -0 0 0 0 0 0 0 0 0 0 0 0 0 0
0 0 0 0 0 0 0 0 0 0 0 0 0 0 1 1 1 0 0 0 0 -0 0 -0 -0 -0 -0 -0 -0 -0 0 0 0 0 0 0 0 0 0 0 0 0 0 0
0 0 0 0 0 0 0 0 0 0 0 0 0 0 0 0 2 2 0 1 0 0 0 0 -0 -0 -0 -0 0 0 0 0 0 0 0 0 0 0 -0 0 0 0 -0 0
0 0 0 0 0 0 0 0 0 0 0 0 0 0 0 0 1 3 2 1 1 2 2 1 0 0 0 0 0 0 0 0 0 0 0 0 0 0 0 0 0 0 0 0
0 0 0 0 0 0 0 0 0 0 0 0 0 0 0 0 1 3 3 3 2 4 4 2 1 0 0 0 0 0 0 0 0 0 0 0 0 0 0 0 0 0 0 0
0 0 0 0 0 0 0 0 0 0 0 0 0 0 0 0 0 1 2 2 6 6 4 2 1 0 0 0 0 0 0 0 0 0 0 0 0 0 0 0 0 0 0 0
0 0 0 0 0 0 0 0 0 0 0 0 0 0 0 0 0 0 1 1 5 7 4 3 1 0 0 0 0 0 0 0 0 0 0 0 0 0 0 0 0 0 0 0
0 0 0 0 0 0 0 0 0 0 0 0 0 0 0 0 0 0 1 1 3 6 4 4 2 1 1 1 0 0 0 0 0 0 0 0 0 0 0 0 0 0 0 0
0 0 0 0 0 0 0 0 0 0 0 0 0 0 0 0 0 1 2 1 2 4 4 4 2 2 2 1 0 0 0 0 0 0 0 0 0 0 0 0 0 0 0 0
0 0 0 0 0 0 0 0 0 0 0 0 0 0 0 0 0 1 2 2 2 3 3 3 0 1 1 0 0 0 0 0 0 0 0 0 0 0 0 0 0 0 0 0
0 0 0 0 0 0 0 0 0 0 0 0 0 0 0 1 1 2 1 1 1 2 2 1 1 1 0 0 0 0 0 0 0 0 0 0 0 0 0 0 0 0 0 0
0 0 0 0 0 0 0 0 0 0 0 0 0 0 0 1 1 1 1 1 1 0 1 0 1 0 0 0 0 0 0 0 0 0 0 0 0 0 0 0 0 0 0 0
0 0 0 0 0 0 0 0 0 0 0 0 0 0 0 1 1 1 0 0 0 0 0 0 0 0 0 0 0 0 0 0 0 0 0 0 0 0 0 0 0 0 0 0
0 0 0 0 0 0 0 0 0 0 0 0 0 0 0 1 1 0 0 0 0 0 0 0 0 0 0 0 0 0 0 0 0 0 0 0 0 0 0 0 0 0 0 0
0 0 0 0 0 0 0 0 0 0 0 0 0 0 0 0 0 0 0 0 0 0 0 0 0 0 0 0 0 0 0 0 0 0 0 0 0 0 0 0 0 0 0 0
0 0 0 0 0 0 0 0 0 0 0 0 0 0 0 0 0 0 0 0 0 0 0 0 0 0 0 0 0 0 0 0 0 0 0 0 0 0 0 0 0 0 0 0
0 0 0 0 0 0 0 0 0 0 0 0 0 0 0 0 0 0 0 0 0 0 0 0 0 0 0 0 0 0 0 0 0 0 0 0 0 0 0 0 0 0 0 0
0 0 0 0 0 0 0 0 0 0 0 0 0 0 0 0 0 0 0 0 0 0 0 0 0 0 0 0 0 0 0 0 0 0 0 0 0 0 0 0 0 0 0 0
Wind_Speed_500mb
34 36 34 37 57 12 21 26 8 38 15 7 28 26 21 22 26 31 45 53 45 42 42 43 39 37 36 36 34 30 32 30 29 26 25 24 25 23 20 19 19 22 24 23
30 30 34 35 27 30 14 17 23 20 24 16 36 33 26 27 32 35 45 50 49 45 40 42 41 41 38 37 36 34 30 32 29 29 25 22 22 20 16 20 25 23 19 17
30 31 22 29 33 28 16 21 19 14 15 14 22 24 29 30 32 35 43 53 52 48 44 40 36 38 38 38 36 32 29 28 30 25 22 24 25 20 16 13 12 15 15 14
25 32 9 51 20 25 15 39 17 26 18 8 12 23 26 28 31 34 41 48 48 46 41 38 33 33 36 37 39 32 31 27 27 30 24 22 21 16 15 16 15 14 11 10
23 29 41 51 18 23 29 15 12 10 8 7 10 26 25 28 26 27 37 46 46 44 40 37 36 35 39 41 40 36 32 30 27 25 24 22 17 15 13 13 11 9 9 6
30 36 36 40 22 36 11 12 10 6 3 6 8 22 17 36 31 28 37 44 43 41 41 41 39 39 41 41 39 35 32 31 28 23 19 18 17 14 12 8 10 7 7 2
28 32 37 25 19 16 26 6 13 14 9 5 9 23 10 29 33 35 41 42 41 42 43 42 41 42 42 42 38 36 32 28 25 22 20 17 16 14 17 19 15 11 8 6
30 39 44 26 9 14 19 23 18 15 13 10 10 9 7 19 37 39 45 45 45 45 44 43 45 45 43 40 40 37 33 29 25 19 18 18 19 21 18 14 14 14 13 11
16 11 20 24 24 22 20 19 17 12 12 11 13 16 4 18 37 39 44 46 47 47 47 45 45 43 44 46 42 38 30 25 25 25 23 22 20 19 20 21 13 11 9 8
20 7 12 10 14 15 15 12 11 11 10 12 15 19 12 12 30 38 44 46 47 48 50 48 43 38 42 45 41 34 31 30 30 28 28 25 22 19 15 13 12 11 9 8
23 30 18 15 10 5 6 7 8 8 9 10 12 15 17 3 13 33 43 46 47 48 46 44 40 39 40 42 39 37 34 33 32 30 29 30 31 27 17 23 20 15 12 13
24 35 14 14 7 5 8 7 6 9 10 10 11 10 12 10 7 21 41 47 48 50 47 44 44 47 44 45 42 38 37 36 33 32 30 23 28 32 19 26 22 17 19 16
35 36 46 34 31 21 20 21 16 14 15 17 14 11 11 11 10 17 27 46 50 55 57 57 46 49 50 47 43 40 38 37 36 33 31 27 25 24 29 23 18 17 16 13
38 38 41 41 40 32 31 23 22 26 24 23 19 14 11 12 10 5 25 32 45 53 62 62 60 53 56 52 48 43 36 38 35 32 31 29 27 25 23 22 20 19 15 13
43 50 53 48 47 47 47 41 31 34 29 26 21 17 16 16 12 9 14 32 38 47 61 59 55 54 57 52 49 44 40 38 32 30 29 31 30 29 24 20 16 14 11 8
41 45 48 54 55 52 48 47 40 38 32 30 23 23 23 22 20 18 16 27 39 56 68 61 62 56 59 57 53 47 41 40 35 31 31 30 30 28 24 21 18 15 9 8
48 44 44 45 44 46 47 41 38 36 27 28 27 24 21 26 23 23 21 25 32 54 68 68 65 62 59 56 52 50 45 46 40 35 34 31 29 28 24 20 17 14 13 23
44 47 41 39 40 38 38 38 37 32 31 25 21 19 23 25 27 25 25 28 35 52 66 70 68 65 65 62 53 48 49 50 43 36 35 31 27 26 24 20 19 16 14 11
29 36 42 45 38 33 33 32 28 26 24 22 23 24 24 26 26 26 31 34 41 61 67 71 61 70 63 70 59 52 50 55 49 42 37 35 33 27 24 22 19 16 12 8
23 29 34 38 37 39 35 31 30 27 25 24 23 22 24 25 27 30 41 39 41 47 68 67 65 73 66 63 57 48 48 51 52 43 39 37 35 31 27 25 20 15 13 12
21 25 27 30 34 33 33 33 30 26 25 23 23 24 23 22 25 33 39 41 46 57 68 68 76 75 65 62 46 40 40 40 48 42 40 38 34 30 26 24 23 18 14 12
36 50 45 40 39 38 37 33 29 25 22 20 19 23 24 21 21 29 36 45 54 58 64 79 84 78 76 66 50 43 42 39 41 39 39 34 32 30 26 23 21 19 16 13
78 76 63 47 40 38 35 33 31 28 23 17 12 10 15 12 13 22 33 45 54 55 72 84 78 78 79 71 66 55 46 49 37 35 36 33 31 29 25 22 20 17 16 14
60 58 61 47 49 43 38 33 31 32 31 24 11 2 8 7 11 16 26 48 53 56 81 81 82 78 72 65 56 47 67 60 57 41 35 34 30 27 23 22 21 18 17 19
58 49 52 45 32 43 38 35 32 28 29 30 27 19 9 7 11 16 10 35 50 71 81 85 85 83 81 60 60 60 58 54 50 41 39 34 29 26 26 24 20 19 18 17
57 52 56 54 46 39 47 41 35 28 28 25 21 18 15 15 20 20 14 34 51 91 86 91 76 67 55 48 55 52 54 46 42 41 35 29 27 25 23 22 21 21 20 21
64 53 49 55 54 45 44 39 32 23 21 20 20 15 15 25 24 23 18 29 69 103 76 68 68 64 47 60 49 51 49 41 44 46 36 27 27 25 24 23 21 21 22 25
Wind_Direction_500mb
273 122 234 251 244 246 231 303 41 228 342 31 116 125 150 161 170 183 192 187 185 189 186 194 199 199 202 200 201 200 197 202 203 204 207 209 212 222 230 241 258 263 255 257
287 297 203 239 271 219 234 276 287 329 298 105 100 120 153 165 174 178 189 186 191 195 192 199 199 196 198 195 198 190 196 193 201 197 198 204 220 234 235 229 235 247 257 249
271 280 290 231 251 236 271 248 285 295 47 13 116 144 163 173 181 183 189 188 190 194 194 194 191 192 193 188 184 188 191 181 191 197 198 201 212 205 213 215 207 213 221 254
272 276 141 280 71 1 127 257 339 337 79 1 144 157 160 170 178 186 189 191 189 191 190 190 189 191 189 187 184 179 170 170 178 194 190 186 186 195 191 194 202 228 242 258
272 274 282 213 202 223 241 97 48 337 354 35 249 139 158 171 182 188 190 191 191 189 186 181 174 167 159 159 159 158 160 172 173 177 178 182 191 194 193 217 227 227 243 271
254 265 239 268 75 354 315 252 47 37 68 329 206 208 154 179 177 175 174 178 182 179 175 171 168 160 156 152 150 153 158 159 173 176 186 186 191 186 195 181 141 123 103 49
243 255 269 29 80 200 227 116 102 68 36 322 276 43 55 175 177 174 173 173 174 175 175 175 168 164 158 152 152 160 167 181 185 187 185 182 169 150 134 150 151 130 112 84
238 255 248 10 291 306 96 106 90 80 55 6 336 321 256 201 182 178 176 175 174 173 175 172 168 166 159 154 169 176 179 181 180 169 146 159 159 152 152 147 127 121 113 87
328 21 46 39 55 58 68 92 87 75 49 22 15 360 269 183 182 182 180 178 178 176 172 173 173 170 161 176 175 175 171 170 160 161 160 149 149 137 127 119 119 128 128 121
309 195 88 80 76 61 52 69 65 65 39 29 14 22 27 199 188 187 184 184 183 180 178 175 174 171 181 176 174 171 171 164 165 159 148 138 128 124 132 132 153 152 148 137
264 266 271 233 190 91 50 30 28 26 10 11 2 18 22 30 212 199 192 189 189 187 184 178 172 169 174 174 176 172 164 157 153 154 146 143 159 148 169 166 155 157 139 150
259 267 307 308 193 137 297 300 307 329 331 333 329 343 1 11 254 220 207 195 193 191 186 180 175 176 177 180 179 172 160 161 162 158 154 159 154 170 174 176 184 182 170 161
269 270 269 266 249 249 275 278 267 288 287 300 299 310 336 341 337 229 222 204 198 194 186 186 176 182 188 184 176 168 167 169 167 164 163 157 157 149 156 151 146 140 140 137
263 262 263 260 260 253 263 270 263 273 275 274 275 286 307 316 326 266 216 213 204 199 188 185 193 186 185 180 178 168 171 174 168 169 169 164 162 158 154 146 142 144 139 129
261 256 253 250 251 253 252 259 256 264 270 271 267 266 272 286 296 293 233 207 205 198 190 180 180 183 178 175 174 168 172 170 169 175 175 172 168 164 162 160 157 155 159 138
259 255 250 250 251 249 254 254 247 255 259 264 261 263 263 270 275 275 244 206 208 195 194 183 181 185 175 176 168 166 170 171 168 172 177 173 172 168 170 171 172 179 190 191
274 258 249 247 248 244 243 242 245 250 251 255 258 255 258 268 264 252 228 212 204 200 200 192 187 182 174 173 169 166 168 168 164 169 171 175 173 175 178 177 179 184 185 207
256 258 257 254 250 239 240 241 239 242 241 245 250 256 259 252 250 239 214 201 191 192 198 198 188 183 174 168 167 170 163 158 160 167 167 172 178 182 179 178 183 189 199 241
268 260 249 247 242 240 240 241 231 231 242 244 245 258 254 252 244 225 205 194 189 193 188 189 198 188 174 164 174 168 165 159 158 165 171 173 176 185 179 182 187 190 192 195
283 267 254 243 235 235 233 229 233 237 242 247 247 255 257 251 241 226 221 207 200 195 197 189 192 182 172 173 170 169 171 165 153 164 169 172 174 178 182 181 185 189 191 192
316 283 262 243 231 224 227 233 232 232 244 243 244 249 259 261 243 224 227 216 208 206 202 196 183 172 170 167 164 168 168 170 150 162 170 167 176 179 185 185 185 190 191 198
300 298 285 252 239 232 226 222 220 228 234 239 241 248 253 255 248 232 232 216 203 202 201 184 180 180 169 157 161 164 164 167 160 161 165 173 178 178 184 188 192 196 204 212
276 266 264 272 231 222 215 216 222 223 222 223 233 247 247 259 252 229 224 210 214 207 193 183 179 173 170 169 162 146 171 168 174 167 169 177 180 183 187 193 200 205 217 231
259 251 249 263 230 215 218 213 222 223 217 218 213 252 335 268 261 228 239 224 219 205 185 184 177 176 175 174 173 183 181 172 164 173 176 183 187 188 193 203 210 217 231 243
263 244 236 240 245 211 213 215 213 218 219 226 231 237 274 310 291 236 268 233 216 194 185 175 173 174 181 182 178 177 168 170 165 164 182 187 193 193 202 210 218 229 242 255
243 237 226 225 229 216 205 211 213 220 212 223 224 222 223 262 287 235 246 226 214 187 189 178 183 184 179 178 182 177 166 171 174 179 179 190 195 205 212 220 226 239 257 272
234 229 213 216 219 204 214 206 184 184 206 217 215 236 238 245 264 236 235 241 207 188 193 194 184 176 181 180 177 174 173 175 185 182 178 199 209 211 215 223 237 252 266 277
Wind_Speed_850mb
34 36 34 37 57 12 21 26 8 38 15 7 28 26 21 22 26 31 45 53 45 42 42 43 39 37 36 36 34 30 32 30 29 26 25 24 25 23 20 19 19 22 24 23
30 30 34 35 27 30 14 17 23 20 24 16 36 33 26 27 32 35 45 50 49 45 40 42 41 41 38 37 36 34 30 32 29 29 25 22 22 20 16 20 25 23 19 17
30 31 22 29 33 28 16 21 19 14 15 14 22 24 29 30 32 35 43 53 52 48 44 40 36 38 38 38 36 32 29 28 30 25 22 24 25 20 16 13 12 15 15 14
25 32 9 51 20 25 15 39 17 26 18 8 12 23 26 28 31 34 41 48 48 46 41 38 33 33 36 37 39 32 31 27 27 30 24 22 21 16 15 16 15 14 11 10
23 29 41 51 18 23 29 15 12 10 8 7 10 26 25 28 26 27 37 46 46 44 40 37 36 35 39 41 40 36 32 30 27 25 24 22 17 15 13 13 11 9 9 6
30 36 36 40 22 36 11 12 10 6 3 6 8 22 17 36 31 28 37 44 43 41 41 41 39 39 41 41 39 35 32 31 28 23 19 18 17 14 12 8 10 7 7 2
28 32 37 25 19 16 26 6 13 14 9 5 9 23 10 29 33 35 41 42 41 42 43 42 41 42 42 42 38 36 32 28 25 22 20 17 16 14 17 19 15 11 8 6
30 39 44 26 9 14 19 23 18 15 13 10 10 9 7 19 37 39 45 45 45 45 44 43 45 45 43 40 40 37 33 29 25 19 18 18 19 21 18 14 14 14 13 11
16 11 20 24 24 22 20 19 17 12 12 11 13 16 4 18 37 39 44 46 47 47 47 45 45 43 44 46 42 38 30 25 25 25 23 22 20 19 20 21 13 11 9 8
20 7 12 10 14 15 15 12 11 11 10 12 15 19 12 12 30 38 44 46 47 48 50 48 43 38 42 45 41 34 31 30 30 28 28 25 22 19 15 13 12 11 9 8
23 30 18 15 10 5 6 7 8 8 9 10 12 15 17 3 13 33 43 46 47 48 46 44 40 39 40 42 39 37 34 33 32 30 29 30 31 27 17 23 20 15 12 13
24 35 14 14 7 5 8 7 6 9 10 10 11 10 12 10 7 21 41 47 48 50 47 44 44 47 44 45 42 38 37 36 33 32 30 23 28 32 19 26 22 17 19 16
35 36 46 34 31 21 20 21 16 14 15 17 14 11 11 11 10 17 27 46 50 55 57 57 46 49 50 47 43 40 38 37 36 33 31 27 25 24 29 23 18 17 16 13
38 38 41 41 40 32 31 23 22 26 24 23 19 14 11 12 10 5 25 32 45 53 62 62 60 53 56 52 48 43 36 38 35 32 31 29 27 25 23 22 20 19 15 13
43 50 53 48 47 47 47 41 31 34 29 26 21 17 16 16 12 9 14 32 38 47 61 59 55 54 57 52 49 44 40 38 32 30 29 31 30 29 24 20 16 14 11 8
41 45 48 54 55 52 48 47 40 38 32 30 23 23 23 22 20 18 16 27 39 56 68 61 62 56 59 57 53 47 41 40 35 31 31 30 30 28 24 21 18 15 9 8
48 44 44 45 44 46 47 41 38 36 27 28 27 24 21 26 23 23 21 25 32 54 68 68 65 62 59 56 52 50 45 46 40 35 34 31 29 28 24 20 17 14 13 23
44 47 41 39 40 38 38 38 37 32 31 25 21 19 23 25 27 25 25 28 35 52 66 70 68 65 65 62 53 48 49 50 43 36 35 31 27 26 24 20 19 16 14 11
29 36 42 45 38 33 33 32 28 26 24 22 23 24 24 26 26 26 31 34 41 61 67 71 61 70 63 70 59 52 50 55 49 42 37 35 33 27 24 22 19 16 12 8
23 29 34 38 37 39 35 31 30 27 25 24 23 22 24 25 27 30 41 39 41 47 68 67 65 73 66 63 57 48 48 51 52 43 39 37 35 31 27 25 20 15 13 12
21 25 27 30 34 33 33 33 30 26 25 23 23 24 23 22 25 33 39 41 46 57 68 68 76 75 65 62 46 40 40 40 48 42 40 38 34 30 26 24 23 18 14 12
36 50 45 40 39 38 37 33 29 25 22 20 19 23 24 21 21 29 36 45 54 58 64 79 84 78 76 66 50 43 42 39 41 39 39 34 32 30 26 23 21 19 16 13
78 76 63 47 40 38 35 33 31 28 23 17 12 10 15 12 13 22 33 45 54 55 72 84 78 78 79 71 66 55 46 49 37 35 36 33 31 29 25 22 20 17 16 14
60 58 61 47 49 43 38 33 31 32 31 24 11 2 8 7 11 16 26 48 53 56 81 81 82 78 72 65 56 47 67 60 57 41 35 34 30 27 23 22 21 18 17 19
58 49 52 45 32 43 38 35 32 28 29 30 27 19 9 7 11 16 10 35 50 71 81 85 85 83 81 60 60 60 58 54 50 41 39 34 29 26 26 24 20 19 18 17
57 52 56 54 46 39 47 41 35 28 28 25 21 18 15 15 20 20 14 34 51 91 86 91 76 67 55 48 55 52 54 46 42 41 35 29 27 25 23 22 21 21 20 21
64 53 49 55 54 45 44 39 32 23 21 20 20 15 15 25 24 23 18 29 69 103 76 68 68 64 47 60 49 51 49 41 44 46 36 27 27 25 24 23 21 21 22 25
Wind_Direction_850mb
273 122 234 251 244 246 231 303 41 228 342 31 116 125 150 161 170 183 192 187 185 189 186 194 199 199 202 200 201 200 197 202 203 204 207 209 212 222 230 241 258 263 255 257
287 297 203 239 271 219 234 276 287 329 298 105 100 120 153 165 174 178 189 186 191 195 192 199 199 196 198 195 198 190 196 193 201 197 198 204 220 234 235 229 235 247 257 249
271 280 290 231 251 236 271 248 285 295 47 13 116 144 163 173 181 183 189 188 190 194 194 194 191 192 193 188 184 188 191 181 191 197 198 201 212 205 213 215 207 213 221 254
272 276 141 280 71 1 127 257 339 337 79 1 144 157 160 170 178 186 189 191 189 191 190 190 189 191 189 187 184 179 170 170 178 194 190 186 186 195 191 194 202 228 242 258
272 274 282 213 202 223 241 97 48 337 354 35 249 139 158 171 182 188 190 191 191 189 186 181 174 167 159 159 159 158 160 172 173 177 178 182 191 194 193 217 227 227 243 271
254 265 239 268 75 354 315 252 47 37 68 329 206 208 154 179 177 175 174 178 182 179 175 171 168 160 156 152 150 153 158 159 173 176 186 186 191 186 195 181 141 123 103 49
243 255 269 29 80 200 227 116 102 68 36 322 276 43 55 175 177 174 173 173 174 175 175 175 168 164 158 152 152 160 167 181 185 187 185 182 169 150 134 150 151 130 112 84
238 255 248 10 291 306 96 106 90 80 55 6 336 321 256 201 182 178 176 175 174 173 175 172 168 166 159 154 169 176 179 181 180 169 146 159 159 152 152 147 127 121 113 87
328 21 46 39 55 58 68 92 87 75 49 22 15 360 269 183 182 182 180 178 178 176 172 173 173 170 161 176 175 175 171 170 160 161 160 149 149 137 127 119 119 128 128 121
309 195 88 80 76 61 52 69 65 65 39 29 14 22 27 199 188 187 184 184 183 180 178 175 174 171 181 176 174 171 171 164 165 159 148 138 128 124 132 132 153 152 148 137
264 266 271 233 190 91 50 30 28 26 10 11 2 18 22 30 212 199 192 189 189 187 184 178 172 169 174 174 176 172 164 157 153 154 146 143 159 148 169 166 155 157 139 150
259 267 307 308 193 137 297 300 307 329 331 333 329 343 1 11 254 220 207 195 193 191 186 180 175 176 177 180 179 172 160 161 162 158 154 159 154 170 174 176 184 182 170 161
269 270 269 266 249 249 275 278 267 288 287 300 299 310 336 341 337 229 222 204 198 194 186 186 176 182 188 184 176 168 167 169 167 164 163 157 157 149 156 151 146 140 140 137
263 262 263 260 260 253 263 270 263 273 275 274 275 286 307 316 326 266 216 213 204 199 188 185 193 186 185 180 178 168 171 174 168 169 169 164 162 158 154 146 142 144 139 129
261 256 253 250 251 253 252 259 256 264 270 271 267 266 272 286 296 293 233 207 205 198 190 180 180 183 178 175 174 168 172 170 169 175 175 172 168 164 162 160 157 155 159 138
259 255 250 250 251 249 254 254 247 255 259 264 261 263 263 270 275 275 244 206 208 195 194 183 181 185 175 176 168 166 170 171 168 172 177 173 172 168 170 171 172 179 190 191
274 258 249 247 248 244 243 242 245 250 251 255 258 255 258 268 264 252 228 212 204 200 200 192 187 182 174 173 169 166 168 168 164 169 171 175 173 175 178 177 179 184 185 207
256 258 257 254 250 239 240 241 239 242 241 245 250 256 259 252 250 239 214 201 191 192 198 198 188 183 174 168 167 170 163 158 160 167 167 172 178 182 179 178 183 189 199 241
268 260 249 247 242 240 240 241 231 231 242 244 245 258 254 252 244 225 205 194 189 193 188 189 198 188 174 164 174 168 165 159 158 165 171 173 176 185 179 182 187 190 192 195
283 267 254 243 235 235 233 229 233 237 242 247 247 255 257 251 241 226 221 207 200 195 197 189 192 182 172 173 170 169 171 165 153 164 169 172 174 178 182 181 185 189 191 192
316 283 262 243 231 224 227 233 232 232 244 243 244 249 259 261 243 224 227 216 208 206 202 196 183 172 170 167 164 168 168 170 150 162 170 167 176 179 185 185 185 190 191 198
300 298 285 252 239 232 226 222 220 228 234 239 241 248 253 255 248 232 232 216 203 202 201 184 180 180 169 157 161 164 164 167 160 161 165 173 178 178 184 188 192 196 204 212
276 266 264 272 231 222 215 216 222 223 222 223 233 247 247 259 252 229 224 210 214 207 193 183 179 173 170 169 162 146 171 168 174 167 169 177 180 183 187 193 200 205 217 231
259 251 249 263 230 215 218 213 222 223 217 218 213 252 335 268 261 228 239 224 219 205 185 184 177 176 175 174 173 183 181 172 164 173 176 183 187 188 193 203 210 217 231 243
263 244 236 240 245 211 213 215 213 218 219 226 231 237 274 310 291 236 268 233 216 194 185 175 173 174 181 182 178 177 168 170 165 164 182 187 193 193 202 210 218 229 242 255
243 237 226 225 229 216 205 211 213 220 212 223 224 222 223 262 287 235 246 226 214 187 189 178 183 184 179 178 182 177 166 171 174 179 179 190 195 205 212 220 226 239 257 272
234 229 213 216 219 204 214 206 184 184 206 217 215 236 238 245 264 236 235 241 207 188 193 194 184 176 181 180 177 174 173 175 185 182 178 199 209 211 215 223 237 252 266 277